Regional Weather Roundup
Issued by NWS

Home | Current Version | Previous Version | Graphics & Text | Print | Product List | Glossary Off
Versions: 1 2 3 4 5 6 7 8 9 10 11 12 13 14 15 16 17 18 19 20 21 22 23 24 25 26 27 28 29 30 31 32 33 34 35 36 37 38 39 40 41 42 43 44 45 46 47 48 49 50

000
ASUS43 KTOP 090408
RWRKS

WEATHER ROUNDUP FOR KANSAS
NATIONAL WEATHER SERVICE GOODLAND KS
1000 PM CST THU DEC 08 2016

NOTE:  "FAIR" INDICATES FEW OR NO CLOUDS BELOW 12,000 FEET WITH NO
SIGNIFICANT WEATHER AND/OR OBSTRUCTIONS TO VISIBILITY.

KSZ001>006-013>018-027>032-041>047-090500-
NORTHWEST KANSAS

CITY           SKY/WX    TMP DP  RH WIND       PRES   REMARKS
GOODLAND       CLOUDY     8   1  73 S7        30.44F
HAYS           CLOUDY    10   4  76 W3        30.61F
HILL CITY      CLOUDY     1  -4  79 CALM      30.59S
RUSSELL        CLEAR     13   5  70 CALM      30.60F
$$

KSZ061>065-074>080-084>089-090500-
SOUTHWEST KANSAS

CITY           SKY/WX    TMP DP  RH WIND       PRES   REMARKS
DODGE CITY     CLOUDY    15   6  67 CALM      30.57F
ELKHART          N/A     20  -1  40 SE10        N/A  WCI   9
GARDEN CITY    CLOUDY    18   7  62 SE8       30.52F
GREAT BEND     CLOUDY     9   4  80 W3        30.62F
LIBERAL        CLOUDY    23   1  39 SE6       30.54S
PRATT          CLOUDY    12   4  70 CALM      30.62F
$$

KSZ066>073-081>083-090>101-090500-
SOUTHEAST KANSAS

CITY           SKY/WX    TMP DP  RH WIND       PRES   REMARKS
CHANUTE        CLEAR     19  11  70 N3        30.66S
COFFEYVILLE    CLEAR     19  11  70 NW8       30.69R
HUTCHINSON     CLEAR     16   6  65 N6        30.64F
MEDICINE LODGE   N/A     15   6  67 NW3       30.65S
NEWTON         CLEAR     16   9  74 NW3       30.65S
PARSONS        CLEAR     14   8  77 NW6       30.68S
WICHITA INTL   CLEAR     20  10  65 N5        30.66S
WICHITA JABRA  CLEAR     16   9  74 NW5       30.66R
WICHITA MCCONL CLEAR     17   8  68 N5        30.66R
WINFIELD       CLEAR     19  10  68 NE6       30.68R
$$

KSZ007>012-019>026-033>040-048>060-102>105-090500-
NORTHEAST KANSAS

CITY           SKY/WX    TMP DP  RH WIND       PRES   REMARKS
CONCORDIA      CLEAR     15   7  70 SW6       30.63F
EMPORIA        CLEAR     14   9  80 W3        30.65S
LAWRENCE       CLEAR     11   9  92 NW3       30.67S
MANHATTAN      CLEAR     13   7  77 CALM      30.67S
MARYSVILLE     CLEAR     14   9  79 CALM      30.64F
OLATHE IND     CLEAR     16   9  74 NW6       30.65S
OLATHE EXE     CLEAR     17   9  70 NW6       30.64S
SALINA         CLEAR     16   8  71 CALM      30.67S
TOPEKA BILLARD CLEAR     17   9  70 W3        30.67S
TOPEKA FORBES  CLEAR     16   8  71 W6        30.66R
$$




USA.gov is the U.S. government's official web portal to all federal, state and local government web resources and services.